Time,TemperatureF,DewpointF,PressureIn,WindDirection,WindDirectionDegrees,WindSpeedMPH,WindSpeedGustMPH,Humidity,HourlyPrecipIn,Conditions,Clouds,dailyrainin,SoftwareType,DateUTC
2013-07-13 00:02:00,74.5,73.6,29.94,SSE,167,0.0,0.0,97,0.00,,,0.10,meteohub,2013-07-13 04:02:00,
2013-07-13 00:07:00,74.5,73.6,29.94,SSE,167,0.0,0.0,97,0.00,,,0.00,meteohub,2013-07-13 04:07:00,
2013-07-13 00:12:00,74.5,73.6,29.94,SSE,167,0.0,0.0,97,0.00,,,0.00,meteohub,2013-07-13 04:12:00,
2013-07-13 00:17:00,74.5,73.6,29.93,SSE,167,0.0,0.0,97,0.00,,,0.00,meteohub,2013-07-13 04:17:00,
2013-07-13 00:22:00,74.5,73.6,29.93,SSE,167,0.0,0.0,97,0.00,,,0.00,meteohub,2013-07-13 04:22:00,
2013-07-13 00:27:00,74.5,73.6,29.93,SSE,167,0.0,0.0,97,0.00,,,0.00,meteohub,2013-07-13 04:27:00,
2013-07-13 00:32:00,74.5,73.6,29.93,SSE,167,0.0,0.0,97,0.00,,,0.00,meteohub,2013-07-13 04:32:00,
2013-07-13 00:37:00,74.3,73.4,29.93,SSE,167,0.0,0.0,97,0.00,,,0.00,meteohub,2013-07-13 04:37:00,
2013-07-13 00:42:00,74.3,73.4,29.93,SSE,167,0.0,5.0,97,0.00,,,0.00,meteohub,2013-07-13 04:42:00,
2013-07-13 00:47:00,74.3,73.4,29.93,SSE,167,0.0,5.0,97,0.00,,,0.00,meteohub,2013-07-13 04:47:00,
2013-07-13 00:52:00,74.3,73.4,29.93,SSE,167,0.0,5.0,97,0.00,,,0.00,meteohub,2013-07-13 04:52:00,
2013-07-13 00:57:00,74.1,73.2,29.93,SSE,167,0.0,8.0,97,0.00,,,0.00,meteohub,2013-07-13 04:57:00,
2013-07-13 01:02:00,74.1,72.9,29.93,SSE,167,3.0,8.0,96,0.00,,,0.00,meteohub,2013-07-13 05:02:00,
2013-07-13 01:07:00,73.9,72.7,29.92,SSE,167,0.0,8.0,96,0.00,,,0.00,meteohub,2013-07-13 05:07:00,
2013-07-13 01:12:00,73.9,72.7,29.92,SSE,167,0.0,6.0,96,0.00,,,0.00,meteohub,2013-07-13 05:12:00,
2013-07-13 01:17:00,73.8,72.9,29.92,SSE,167,3.0,5.0,97,0.00,,,0.00,meteohub,2013-07-13 05:17:00,
2013-07-13 01:22:00,73.8,72.9,29.92,SSE,167,0.0,4.0,97,0.00,,,0.00,meteohub,2013-07-13 05:22:00,
2013-07-13 01:27:00,73.8,72.9,29.92,SSE,167,1.0,5.0,97,0.00,,,0.00,meteohub,2013-07-13 05:27:00,
2013-07-13 01:32:00,73.6,72.7,29.92,SSE,167,5.0,5.0,97,0.00,,,0.00,meteohub,2013-07-13 05:32:00,
2013-07-13 01:37:00,73.6,72.7,29.92,SSE,167,0.0,5.0,97,0.00,,,0.00,meteohub,2013-07-13 05:37:00,
2013-07-13 01:42:00,73.4,72.5,29.92,SSE,167,0.0,5.0,97,0.00,,,0.00,meteohub,2013-07-13 05:42:00,
2013-07-13 01:47:00,73.2,72.3,29.92,SSE,167,0.0,5.0,97,0.00,,,0.00,meteohub,2013-07-13 05:47:00,
2013-07-13 01:52:00,73.2,72.3,29.92,SSE,167,0.0,0.0,97,0.00,,,0.00,meteohub,2013-07-13 05:52:00,
2013-07-13 01:57:00,73.2,72.3,29.92,SSE,167,0.0,0.0,97,0.00,,,0.00,meteohub,2013-07-13 05:57:00,
2013-07-13 02:02:00,73.2,72.3,29.91,SSE,167,0.0,0.0,97,0.00,,,0.00,meteohub,2013-07-13 06:02:00,
2013-07-13 02:07:00,73.0,72.1,29.91,SSE,167,3.0,0.0,97,0.00,,,0.00,meteohub,2013-07-13 06:07:00,
2013-07-13 02:12:00,73.0,72.1,29.91,SSE,167,0.0,3.0,97,0.00,,,0.00,meteohub,2013-07-13 06:12:00,
2013-07-13 02:17:00,73.0,72.1,29.91,SSE,167,3.0,5.0,97,0.00,,,0.00,meteohub,2013-07-13 06:17:00,
2013-07-13 02:22:00,73.0,72.1,29.91,SSE,167,0.0,5.0,97,0.00,,,0.00,meteohub,2013-07-13 06:22:00,
2013-07-13 02:27:00,73.0,72.1,29.91,SSE,167,0.0,5.0,97,0.00,,,0.00,meteohub,2013-07-13 06:27:00,
2013-07-13 02:32:00,73.0,72.1,29.91,SSE,167,0.0,5.0,97,0.00,,,0.00,meteohub,2013-07-13 06:32:00,
2013-07-13 02:37:00,73.0,72.1,29.91,SSE,167,0.0,4.0,97,0.00,,,0.00,meteohub,2013-07-13 06:37:00,
2013-07-13 02:42:00,73.0,72.1,29.91,SSE,167,0.0,4.0,97,0.00,,,0.00,meteohub,2013-07-13 06:42:00,
2013-07-13 02:47:00,72.9,72.0,29.91,SSE,167,0.0,1.0,97,0.00,,,0.00,meteohub,2013-07-13 06:47:00,
2013-07-13 02:52:00,72.9,72.0,29.91,SSE,167,0.0,0.0,97,0.00,,,0.00,meteohub,2013-07-13 06:52:00,
2013-07-13 02:57:00,72.9,72.0,29.91,SSE,167,0.0,0.0,97,0.00,,,0.00,meteohub,2013-07-13 06:57:00,
2013-07-13 03:02:00,72.9,72.0,29.91,SSE,167,0.0,0.0,97,0.00,,,0.00,meteohub,2013-07-13 07:02:00,
2013-07-13 03:07:00,72.9,72.0,29.91,SSE,167,0.0,0.0,97,0.00,,,0.00,meteohub,2013-07-13 07:07:00,
2013-07-13 03:12:00,72.7,71.8,29.92,SSE,167,0.0,0.0,97,0.00,,,0.00,meteohub,2013-07-13 07:12:00,
2013-07-13 03:17:00,72.7,71.8,29.92,SSE,167,0.0,0.0,97,0.00,,,0.00,meteohub,2013-07-13 07:17:00,
2013-07-13 03:22:00,72.7,71.8,29.92,SSE,167,0.0,0.0,97,0.00,,,0.00,meteohub,2013-07-13 07:22:00,
2013-07-13 03:27:00,72.5,71.6,29.92,SSE,167,0.0,0.0,97,0.00,,,0.00,meteohub,2013-07-13 07:27:00,
2013-07-13 03:32:00,72.7,72.1,29.92,SSE,167,0.0,0.0,98,0.00,,,0.00,meteohub,2013-07-13 07:32:00,
2013-07-13 03:42:00,72.3,71.4,29.92,SSE,167,0.0,0.0,97,0.00,,,0.00,meteohub,2013-07-13 07:42:00,
2013-07-13 03:47:00,72.3,71.4,29.92,SSE,167,0.0,0.0,97,0.00,,,0.00,meteohub,2013-07-13 07:47:00,
2013-07-13 03:52:00,72.1,71.2,29.92,SSE,167,0.0,0.0,97,0.00,,,0.00,meteohub,2013-07-13 07:52:00,
2013-07-13 03:57:00,72.1,71.2,29.92,SSE,167,0.0,0.0,97,0.00,,,0.00,meteohub,2013-07-13 07:57:00,
2013-07-13 04:02:00,72.1,71.2,29.92,SSE,167,0.0,0.0,97,0.00,,,0.00,meteohub,2013-07-13 08:02:00,
2013-07-13 04:07:00,72.0,71.1,29.92,SSE,167,0.0,0.0,97,0.00,,,0.00,meteohub,2013-07-13 08:07:00,
2013-07-13 04:12:00,72.0,71.1,29.92,SSE,167,0.0,0.0,97,0.00,,,0.00,meteohub,2013-07-13 08:12:00,
2013-07-13 04:17:00,72.0,71.1,29.92,SSE,167,0.0,0.0,97,0.00,,,0.00,meteohub,2013-07-13 08:17:00,
2013-07-13 04:22:00,72.0,71.4,29.93,SSE,167,0.0,0.0,98,0.00,,,0.00,meteohub,2013-07-13 08:22:00,
2013-07-13 04:27:00,72.0,71.4,29.92,SSE,167,0.0,0.0,98,0.00,,,0.00,meteohub,2013-07-13 08:27:00,
2013-07-13 04:32:00,72.0,71.4,29.93,SSE,167,0.0,0.0,98,0.00,,,0.00,meteohub,2013-07-13 08:32:00,
2013-07-13 04:37:00,72.0,71.4,29.93,SSE,167,0.0,0.0,98,0.00,,,0.00,meteohub,2013-07-13 08:37:00,
2013-07-13 04:42:00,72.1,71.6,29.93,SSE,167,0.0,0.0,98,0.00,,,0.00,meteohub,2013-07-13 08:42:00,
2013-07-13 04:47:00,72.1,71.6,29.94,SSE,167,0.0,0.0,98,0.00,,,0.00,meteohub,2013-07-13 08:47:00,
2013-07-13 04:52:00,72.1,71.6,29.94,SSE,167,0.0,0.0,98,0.00,,,0.00,meteohub,2013-07-13 08:52:00,
2013-07-13 04:57:00,72.1,71.6,29.94,SSE,167,0.0,0.0,98,0.00,,,0.00,meteohub,2013-07-13 08:57:00,
2013-07-13 05:02:00,72.1,71.6,29.94,SSE,167,0.0,0.0,98,0.00,,,0.00,meteohub,2013-07-13 09:02:00,
2013-07-13 05:07:00,72.0,71.4,29.94,SSE,167,0.0,0.0,98,0.00,,,0.00,meteohub,2013-07-13 09:07:00,
2013-07-13 05:12:00,72.0,71.4,29.93,SSE,167,0.0,0.0,98,0.00,,,0.00,meteohub,2013-07-13 09:12:00,
2013-07-13 05:17:00,72.0,71.4,29.93,SSE,167,0.0,0.0,98,0.00,,,0.00,meteohub,2013-07-13 09:17:00,
2013-07-13 05:22:00,72.0,71.4,29.93,SSE,167,0.0,0.0,98,0.00,,,0.00,meteohub,2013-07-13 09:22:00,
2013-07-13 05:27:00,71.8,71.2,29.93,SSE,167,0.0,0.0,98,0.00,,,0.00,meteohub,2013-07-13 09:27:00,
2013-07-13 05:32:00,71.8,71.2,29.93,SSE,167,0.0,0.0,98,0.00,,,0.00,meteohub,2013-07-13 09:32:00,
2013-07-13 05:37:00,71.8,71.2,29.93,SSE,167,0.0,0.0,98,0.00,,,0.00,meteohub,2013-07-13 09:37:00,
2013-07-13 05:42:00,71.8,71.2,29.93,SSE,167,0.0,0.0,98,0.00,,,0.00,meteohub,2013-07-13 09:42:00,
2013-07-13 05:47:00,71.8,71.2,29.93,SSE,167,0.0,0.0,98,0.00,,,0.00,meteohub,2013-07-13 09:47:00,
2013-07-13 05:52:00,71.8,71.2,29.93,SSE,167,0.0,0.0,98,0.00,,,0.00,meteohub,2013-07-13 09:52:00,
2013-07-13 05:57:00,71.8,71.2,29.93,SSE,167,0.0,0.0,98,0.00,,,0.00,meteohub,2013-07-13 09:57:00,
2013-07-13 06:02:00,71.8,71.2,29.93,SSE,167,0.0,0.0,98,0.00,,,0.00,meteohub,2013-07-13 10:02:00,
2013-07-13 06:07:00,71.8,71.2,29.93,SSE,167,0.0,0.0,98,0.00,,,0.00,meteohub,2013-07-13 10:07:00,
2013-07-13 06:12:00,71.6,71.1,29.93,SSE,167,0.0,0.0,98,0.00,,,0.00,meteohub,2013-07-13 10:12:00,
2013-07-13 06:17:00,71.6,71.1,29.94,SSE,167,0.0,0.0,98,0.00,,,0.00,meteohub,2013-07-13 10:17:00,
2013-07-13 06:22:00,71.6,71.1,29.94,SSE,167,0.0,0.0,98,0.00,,,0.00,meteohub,2013-07-13 10:22:00,
2013-07-13 06:27:00,71.8,71.2,29.94,SSE,167,0.0,0.0,98,0.00,,,0.00,meteohub,2013-07-13 10:27:00,
2013-07-13 06:32:00,71.8,71.2,29.94,SSE,167,0.0,0.0,98,0.00,,,0.00,meteohub,2013-07-13 10:32:00,
2013-07-13 06:37:00,71.8,71.2,29.93,SSE,167,0.0,0.0,98,0.00,,,0.00,meteohub,2013-07-13 10:37:00,
2013-07-13 06:42:00,71.8,71.2,29.93,SSE,167,0.0,0.0,98,0.00,,,0.00,meteohub,2013-07-13 10:42:00,
2013-07-13 06:47:00,71.6,71.1,29.93,SSE,167,0.0,0.0,98,0.00,,,0.00,meteohub,2013-07-13 10:47:00,
2013-07-13 06:52:00,71.8,71.2,29.93,SSE,167,0.0,0.0,98,0.00,,,0.00,meteohub,2013-07-13 10:52:00,
2013-07-13 06:57:00,71.8,71.2,29.94,SSE,167,0.0,0.0,98,0.00,,,0.00,meteohub,2013-07-13 10:57:00,
2013-07-13 07:02:00,71.8,71.2,29.94,SSE,167,0.0,0.0,98,0.00,,,0.00,meteohub,2013-07-13 11:02:00,
2013-07-13 07:07:00,72.0,71.4,29.94,SSE,167,1.0,0.0,98,0.00,,,0.00,meteohub,2013-07-13 11:07:00,
2013-07-13 07:12:00,72.0,71.4,29.94,SSE,167,0.0,3.0,98,0.00,,,0.00,meteohub,2013-07-13 11:12:00,
2013-07-13 07:17:00,72.0,71.4,29.94,SSE,167,0.0,3.0,98,0.00,,,0.00,meteohub,2013-07-13 11:17:00,
2013-07-13 07:22:00,72.1,71.6,29.94,SSE,167,0.0,3.0,98,0.00,,,0.00,meteohub,2013-07-13 11:22:00,
2013-07-13 07:27:00,72.1,71.6,29.94,SSE,167,0.0,1.0,98,0.00,,,0.00,meteohub,2013-07-13 11:27:00,
2013-07-13 07:32:00,72.3,71.8,29.94,SSE,167,0.0,1.0,98,0.00,,,0.00,meteohub,2013-07-13 11:32:00,
2013-07-13 07:37:00,72.3,72.0,29.94,SSE,167,0.0,0.0,99,0.00,,,0.00,meteohub,2013-07-13 11:37:00,
2013-07-13 07:42:00,72.5,72.0,29.94,SSE,167,0.0,0.0,98,0.00,,,0.00,meteohub,2013-07-13 11:42:00,
2013-07-13 07:47:00,72.7,72.1,29.94,SSE,167,0.0,0.0,98,0.00,,,0.00,meteohub,2013-07-13 11:47:00,
2013-07-13 07:52:00,72.9,72.5,29.94,SSE,167,0.0,0.0,99,0.00,,,0.00,meteohub,2013-07-13 11:52:00,
2013-07-13 07:57:00,73.0,72.5,29.94,SSE,167,0.0,0.0,98,0.00,,,0.00,meteohub,2013-07-13 11:57:00,
2013-07-13 08:02:00,73.0,72.7,29.94,SSE,167,0.0,0.0,99,0.00,,,0.00,meteohub,2013-07-13 12:02:00,
2013-07-13 08:07:00,73.2,72.9,29.94,SSE,167,0.0,0.0,99,0.00,,,0.00,meteohub,2013-07-13 12:07:00,
2013-07-13 08:12:00,73.6,73.0,29.95,SSE,167,0.0,0.0,98,0.00,,,0.00,meteohub,2013-07-13 12:12:00,
2013-07-13 08:17:00,73.8,73.2,29.95,SSE,167,0.0,0.0,98,0.00,,,0.00,meteohub,2013-07-13 12:17:00,
2013-07-13 08:22:00,73.9,73.4,29.95,SSE,167,0.0,4.0,98,0.00,,,0.00,meteohub,2013-07-13 12:22:00,
2013-07-13 08:27:00,74.1,73.6,29.95,SSE,167,0.0,4.0,98,0.00,,,0.00,meteohub,2013-07-13 12:27:00,
2013-07-13 08:32:00,74.5,73.9,29.96,SSE,167,0.0,4.0,98,0.00,,,0.00,meteohub,2013-07-13 12:32:00,
2013-07-13 08:37:00,74.8,74.3,29.96,SSE,167,0.0,0.0,98,0.00,,,0.00,meteohub,2013-07-13 12:37:00,
2013-07-13 08:42:00,75.2,74.7,29.96,SSE,167,0.0,0.0,98,0.00,,,0.00,meteohub,2013-07-13 12:42:00,
2013-07-13 08:47:00,75.6,74.7,29.96,SSE,167,0.0,4.0,97,0.00,,,0.00,meteohub,2013-07-13 12:47:00,
2013-07-13 08:52:00,75.7,74.8,29.96,SSE,167,0.0,4.0,97,0.00,,,0.00,meteohub,2013-07-13 12:52:00,
2013-07-13 08:57:00,75.9,74.7,29.97,SSE,167,0.0,4.0,96,0.00,,,0.00,meteohub,2013-07-13 12:57:00,
2013-07-13 09:02:00,76.5,74.8,29.97,SSE,167,0.0,3.0,95,0.00,,,0.00,meteohub,2013-07-13 13:02:00,
2013-07-13 09:07:00,76.8,75.0,29.97,SSE,167,0.0,3.0,94,0.00,,,0.00,meteohub,2013-07-13 13:07:00,
2013-07-13 09:12:00,77.4,75.6,29.97,SSE,167,4.0,4.0,94,0.00,,,0.00,meteohub,2013-07-13 13:12:00,
2013-07-13 09:17:00,77.7,75.2,29.97,SSE,167,0.0,5.0,92,0.00,,,0.00,meteohub,2013-07-13 13:17:00,
2013-07-13 09:22:00,78.3,76.1,29.97,SSE,167,0.0,5.0,93,0.00,,,0.00,meteohub,2013-07-13 13:22:00,
2013-07-13 09:27:00,78.6,75.7,29.97,SSE,167,1.0,5.0,91,0.00,,,0.00,meteohub,2013-07-13 13:27:00,
2013-07-13 09:32:00,79.2,75.4,29.97,SSE,167,1.0,4.0,88,0.00,,,0.00,meteohub,2013-07-13 13:32:00,
2013-07-13 09:37:00,79.5,75.6,29.97,SSE,167,1.0,6.0,88,0.00,,,0.00,meteohub,2013-07-13 13:37:00,
2013-07-13 09:42:00,79.9,75.7,29.97,SSE,167,0.0,6.0,87,0.00,,,0.00,meteohub,2013-07-13 13:42:00,
2013-07-13 09:47:00,80.4,75.9,29.97,SSE,167,3.0,6.0,86,0.00,,,0.00,meteohub,2013-07-13 13:47:00,
2013-07-13 09:52:00,80.8,76.3,29.97,SSE,167,3.0,6.0,86,0.00,,,0.00,meteohub,2013-07-13 13:52:00,
2013-07-13 09:57:00,81.0,76.5,29.97,SSE,167,5.0,8.0,86,0.00,,,0.00,meteohub,2013-07-13 13:57:00,
2013-07-13 10:02:00,81.0,76.1,29.97,SSE,167,0.0,8.0,85,0.00,,,0.00,meteohub,2013-07-13 14:02:00,
2013-07-13 10:07:00,81.0,76.5,29.97,SSE,167,0.0,6.0,86,0.00,,,0.00,meteohub,2013-07-13 14:07:00,
2013-07-13 10:12:00,81.3,76.5,29.97,SSE,167,0.0,6.0,85,0.00,,,0.00,meteohub,2013-07-13 14:12:00,
2013-07-13 10:17:00,82.2,75.7,29.97,SSE,167,0.0,5.0,81,0.00,,,0.00,meteohub,2013-07-13 14:17:00,
2013-07-13 10:22:00,82.8,76.6,29.97,SSE,167,0.0,6.0,82,0.00,,,0.00,meteohub,2013-07-13 14:22:00,
2013-07-13 10:27:00,82.9,75.7,29.97,SSE,167,0.0,6.0,79,0.00,,,0.00,meteohub,2013-07-13 14:27:00,
2013-07-13 10:32:00,82.9,76.1,29.97,SSE,167,0.0,6.0,80,0.00,,,0.00,meteohub,2013-07-13 14:32:00,
2013-07-13 10:37:00,82.6,76.5,29.97,SSE,167,1.0,6.0,82,0.00,,,0.00,meteohub,2013-07-13 14:37:00,
2013-07-13 10:42:00,82.2,75.7,29.98,SSE,167,0.0,6.0,81,0.00,,,0.00,meteohub,2013-07-13 14:42:00,
2013-07-13 10:47:00,82.2,76.1,29.98,SSE,167,5.0,6.0,82,0.00,,,0.00,meteohub,2013-07-13 14:47:00,
2013-07-13 10:52:00,82.4,75.9,29.97,SSE,167,4.0,5.0,81,0.00,,,0.00,meteohub,2013-07-13 14:52:00,
2013-07-13 10:57:00,82.4,75.9,29.98,SSE,167,3.0,6.0,81,0.00,,,0.00,meteohub,2013-07-13 14:57:00,
2013-07-13 11:02:00,82.6,75.7,29.97,SSE,167,0.0,6.0,80,0.00,,,0.00,meteohub,2013-07-13 15:02:00,
2013-07-13 11:07:00,82.6,76.5,29.97,SSE,167,5.0,6.0,82,0.00,,,0.00,meteohub,2013-07-13 15:07:00,
2013-07-13 11:12:00,82.4,75.2,29.97,SSE,167,1.0,5.0,79,0.00,,,0.00,meteohub,2013-07-13 15:12:00,
2013-07-13 11:17:00,82.4,75.6,29.98,SSE,167,1.0,5.0,80,0.00,,,0.00,meteohub,2013-07-13 15:17:00,
2013-07-13 11:22:00,82.6,76.1,29.98,SSE,167,3.0,5.0,81,0.00,,,0.00,meteohub,2013-07-13 15:22:00,
2013-07-13 11:27:00,82.8,76.3,29.98,SSE,167,0.0,6.0,81,0.00,,,0.00,meteohub,2013-07-13 15:27:00,
2013-07-13 11:32:00,83.1,76.6,29.98,SSE,167,1.0,6.0,81,0.00,,,0.00,meteohub,2013-07-13 15:32:00,
2013-07-13 11:37:00,83.7,76.1,29.98,SSE,167,8.0,8.0,78,0.00,,,0.00,meteohub,2013-07-13 15:37:00,
2013-07-13 11:42:00,83.7,75.7,29.98,SSE,167,1.0,9.0,77,0.00,,,0.00,meteohub,2013-07-13 15:42:00,
2013-07-13 11:47:00,84.0,76.1,29.98,SSE,167,0.0,9.0,77,0.00,,,0.00,meteohub,2013-07-13 15:47:00,
2013-07-13 11:52:00,84.6,77.4,29.98,SE,124,8.0,9.0,79,0.00,,,0.00,meteohub,2013-07-13 15:52:00,
2013-07-13 11:57:00,84.7,76.6,29.97,SE,133,0.0,10.0,77,0.00,,,0.00,meteohub,2013-07-13 15:57:00,
2013-07-13 12:02:00,85.5,76.3,29.97,SE,133,0.0,10.0,74,0.00,,,0.00,meteohub,2013-07-13 16:02:00,
2013-07-13 12:07:00,85.8,75.4,29.97,SE,137,2.0,10.0,71,0.00,,,0.00,meteohub,2013-07-13 16:07:00,
2013-07-13 12:12:00,86.5,79.2,29.97,SE,137,0.0,5.0,79,0.00,,,0.00,meteohub,2013-07-13 16:12:00,
2013-07-13 12:17:00,87.3,78.4,29.97,SE,146,0.0,7.0,75,0.00,,,0.00,meteohub,2013-07-13 16:17:00,
2013-07-13 12:22:00,87.6,77.0,29.96,SSE,154,6.0,7.0,71,0.00,,,0.00,meteohub,2013-07-13 16:22:00,
2013-07-13 12:27:00,88.0,77.0,29.96,SSE,149,3.0,12.0,70,0.00,,,0.00,meteohub,2013-07-13 16:27:00,
2013-07-13 12:32:00,88.2,79.7,29.96,East,101,2.0,12.0,76,0.00,,,0.00,meteohub,2013-07-13 16:32:00,
2013-07-13 12:37:00,87.6,78.3,29.96,SSE,153,4.0,12.0,74,0.00,,,0.00,meteohub,2013-07-13 16:37:00,
2013-07-13 12:42:00,86.9,77.5,29.96,SE,135,2.0,11.0,74,0.00,,,0.00,meteohub,2013-07-13 16:42:00,
2013-07-13 12:47:00,87.1,78.6,29.96,ESE,117,2.0,9.0,76,0.00,,,0.00,meteohub,2013-07-13 16:47:00,
2013-07-13 12:52:00,87.3,78.4,29.96,ENE,78,2.0,12.0,75,0.00,,,0.00,meteohub,2013-07-13 16:52:00,
2013-07-13 12:57:00,87.4,78.1,29.96,SE,141,4.0,13.0,74,0.00,,,0.00,meteohub,2013-07-13 16:57:00,
2013-07-13 13:02:00,87.4,76.8,29.96,SE,136,3.0,13.0,71,0.00,,,0.00,meteohub,2013-07-13 17:02:00,
2013-07-13 13:07:00,87.3,76.6,29.96,SE,124,4.0,13.0,71,0.00,,,0.00,meteohub,2013-07-13 17:07:00,
2013-07-13 13:12:00,87.1,77.0,29.96,SE,146,9.0,12.0,72,0.00,,,0.00,meteohub,2013-07-13 17:12:00,
2013-07-13 13:17:00,86.4,75.9,29.96,SE,129,5.0,13.0,71,0.00,,,0.00,meteohub,2013-07-13 17:17:00,
2013-07-13 13:22:00,86.5,78.1,29.96,SE,137,2.0,16.0,76,0.00,,,0.00,meteohub,2013-07-13 17:22:00,
2013-07-13 13:27:00,86.7,76.6,29.96,SSE,167,10.0,16.0,72,0.00,,,0.00,meteohub,2013-07-13 17:27:00,
2013-07-13 13:32:00,86.5,77.2,29.96,SE,137,13.0,16.0,74,0.00,,,0.00,meteohub,2013-07-13 17:32:00,
2013-07-13 13:37:00,86.7,77.0,29.96,SE,124,3.0,15.0,73,0.00,,,0.00,meteohub,2013-07-13 17:37:00,
2013-07-13 13:42:00,86.4,77.0,29.96,SE,136,8.0,13.0,74,0.00,,,0.00,meteohub,2013-07-13 17:42:00,
2013-07-13 13:47:00,85.6,76.5,29.96,SSE,156,8.0,14.0,74,0.00,,,0.00,meteohub,2013-07-13 17:47:00,
2013-07-13 13:52:00,84.9,75.7,29.96,SE,128,2.0,14.0,74,0.00,,,0.00,meteohub,2013-07-13 17:52:00,
2013-07-13 13:57:00,84.7,75.6,29.96,SSE,161,7.0,15.0,74,0.00,,,0.00,meteohub,2013-07-13 17:57:00,
2013-07-13 14:02:00,84.7,75.9,29.95,SSE,161,7.0,17.0,75,0.00,,,0.00,meteohub,2013-07-13 18:02:00,
2013-07-13 14:07:00,84.0,74.8,29.95,SE,144,5.0,17.0,74,0.00,,,0.00,meteohub,2013-07-13 18:07:00,
2013-07-13 14:12:00,83.1,74.8,29.96,South,175,6.0,17.0,76,0.00,,,0.00,meteohub,2013-07-13 18:12:00,
2013-07-13 14:17:00,82.9,75.0,29.96,SSE,147,1.0,14.0,77,0.00,,,0.00,meteohub,2013-07-13 18:17:00,
2013-07-13 14:22:00,83.5,76.6,29.96,SE,130,8.0,14.0,80,0.00,,,0.00,meteohub,2013-07-13 18:22:00,
2013-07-13 14:27:00,84.0,76.1,29.96,SE,124,5.0,13.0,77,0.00,,,0.00,meteohub,2013-07-13 18:27:00,
2013-07-13 14:32:00,84.6,76.5,29.96,SE,140,7.0,9.0,77,0.00,,,0.00,meteohub,2013-07-13 18:32:00,
2013-07-13 14:37:00,84.9,76.8,29.95,SE,128,11.0,13.0,77,0.00,,,0.00,meteohub,2013-07-13 18:37:00,
2013-07-13 14:42:00,85.5,77.0,29.95,ESE,122,5.0,13.0,76,0.00,,,0.00,meteohub,2013-07-13 18:42:00,
2013-07-13 14:47:00,85.8,77.7,29.95,SSE,155,3.0,12.0,77,0.00,,,0.00,meteohub,2013-07-13 18:47:00,
2013-07-13 14:52:00,86.2,77.7,29.95,SE,146,1.0,12.0,76,0.00,,,0.00,meteohub,2013-07-13 18:52:00,
2013-07-13 14:57:00,85.8,77.4,29.95,ESE,103,1.0,12.0,76,0.00,,,0.00,meteohub,2013-07-13 18:57:00,
2013-07-13 15:02:00,85.5,77.0,29.95,East,89,3.0,12.0,76,0.00,,,0.00,meteohub,2013-07-13 19:02:00,
2013-07-13 15:07:00,85.5,77.0,29.95,SE,127,1.0,11.0,76,0.00,,,0.00,meteohub,2013-07-13 19:07:00,
2013-07-13 15:12:00,85.5,77.4,29.96,SSE,147,1.0,11.0,77,0.00,,,0.00,meteohub,2013-07-13 19:12:00,
2013-07-13 15:17:00,85.6,77.5,29.96,East,90,2.0,11.0,77,0.00,,,0.00,meteohub,2013-07-13 19:17:00,
2013-07-13 15:22:00,86.4,78.6,29.96,SE,146,12.0,12.0,78,0.00,,,0.00,meteohub,2013-07-13 19:22:00,
2013-07-13 15:27:00,85.8,77.4,29.96,NE,40,6.0,14.0,76,0.00,,,0.00,meteohub,2013-07-13 19:27:00,
2013-07-13 15:32:00,85.8,77.4,29.96,East,80,3.0,14.0,76,0.00,,,0.00,meteohub,2013-07-13 19:32:00,
2013-07-13 15:37:00,85.3,76.8,29.96,East,83,5.0,14.0,76,0.00,,,0.00,meteohub,2013-07-13 19:37:00,
2013-07-13 15:42:00,84.9,76.1,29.96,ESE,107,4.0,11.0,75,0.00,,,0.00,meteohub,2013-07-13 19:42:00,
2013-07-13 15:47:00,84.6,77.4,29.96,East,84,3.0,10.0,79,0.00,,,0.00,meteohub,2013-07-13 19:47:00,
2013-07-13 15:52:00,84.7,76.6,29.96,SSE,151,1.0,13.0,77,0.00,,,0.00,meteohub,2013-07-13 19:52:00,
2013-07-13 15:57:00,84.7,76.6,29.96,ESE,123,5.0,13.0,77,0.00,,,0.00,meteohub,2013-07-13 19:57:00,
2013-07-13 16:02:00,84.4,75.9,29.96,SE,130,4.0,13.0,76,0.00,,,0.00,meteohub,2013-07-13 20:02:00,
2013-07-13 16:07:00,84.4,77.2,29.96,SE,143,9.0,14.0,79,0.00,,,0.00,meteohub,2013-07-13 20:07:00,
2013-07-13 16:12:00,84.6,77.4,29.96,SE,134,3.0,14.0,79,0.00,,,0.00,meteohub,2013-07-13 20:12:00,
2013-07-13 16:17:00,84.4,75.2,29.96,ESE,109,3.0,14.0,74,0.00,,,0.00,meteohub,2013-07-13 20:17:00,
2013-07-13 16:22:00,83.8,75.9,29.96,SE,136,1.0,11.0,77,0.00,,,0.00,meteohub,2013-07-13 20:22:00,
2013-07-13 16:27:00,84.0,76.5,29.96,SE,132,1.0,14.0,78,0.00,,,0.00,meteohub,2013-07-13 20:27:00,
2013-07-13 16:32:00,84.2,77.0,29.96,SE,138,4.0,14.0,79,0.00,,,0.00,meteohub,2013-07-13 20:32:00,
2013-07-13 16:37:00,84.4,76.5,29.96,SSE,161,15.0,15.0,77,0.00,,,0.00,meteohub,2013-07-13 20:37:00,
2013-07-13 16:42:00,83.8,75.9,29.96,SE,138,4.0,15.0,77,0.00,,,0.00,meteohub,2013-07-13 20:42:00,
2013-07-13 16:47:00,83.5,75.9,29.97,SE,138,2.0,15.0,78,0.00,,,0.00,meteohub,2013-07-13 20:47:00,
2013-07-13 16:52:00,83.3,76.1,29.97,SE,142,0.0,15.0,79,0.00,,,0.00,meteohub,2013-07-13 20:52:00,
2013-07-13 16:57:00,82.9,75.4,29.97,SSE,163,1.0,10.0,78,0.00,,,0.00,meteohub,2013-07-13 20:57:00,
2013-07-13 17:02:00,82.6,75.4,29.98,SSE,154,2.0,10.0,79,0.00,,,0.00,meteohub,2013-07-13 21:02:00,
2013-07-13 17:07:00,82.0,75.2,29.98,ESE,119,3.0,12.0,80,0.00,,,0.00,meteohub,2013-07-13 21:07:00,
2013-07-13 17:12:00,81.5,75.4,29.98,SE,140,3.0,12.0,82,0.00,,,0.00,meteohub,2013-07-13 21:12:00,
2013-07-13 17:17:00,81.1,75.6,29.98,ESE,121,2.0,12.0,83,0.00,,,0.00,meteohub,2013-07-13 21:17:00,
2013-07-13 17:22:00,81.1,75.6,29.98,SE,132,3.0,11.0,83,0.00,,,0.00,meteohub,2013-07-13 21:22:00,
2013-07-13 17:27:00,81.0,75.7,29.98,SE,144,2.0,10.0,84,0.00,,,0.00,meteohub,2013-07-13 21:27:00,
2013-07-13 17:32:00,80.8,75.6,29.99,SE,126,3.0,8.0,84,0.00,,,0.00,meteohub,2013-07-13 21:32:00,
2013-07-13 17:37:00,80.6,75.0,29.99,South,177,6.0,8.0,83,0.00,,,0.00,meteohub,2013-07-13 21:37:00,
2013-07-13 17:42:00,80.4,74.8,29.99,SE,142,3.0,10.0,83,0.00,,,0.00,meteohub,2013-07-13 21:42:00,
2013-07-13 17:47:00,80.2,74.7,29.99,East,86,3.0,10.0,83,0.00,,,0.00,meteohub,2013-07-13 21:47:00,
2013-07-13 17:52:00,80.2,74.7,29.99,ESE,105,2.0,10.0,83,0.00,,,0.00,meteohub,2013-07-13 21:52:00,
2013-07-13 17:57:00,80.2,75.0,29.99,SE,140,0.0,8.0,84,0.00,,,0.00,meteohub,2013-07-13 21:57:00,
2013-07-13 18:02:00,80.2,75.0,29.99,SSE,150,1.0,8.0,84,0.00,,,0.00,meteohub,2013-07-13 22:02:00,
2013-07-13 18:07:00,80.1,74.5,29.99,SE,130,7.0,7.0,83,0.00,,,0.00,meteohub,2013-07-13 22:07:00,
2013-07-13 18:12:00,79.9,74.7,29.99,South,190,0.0,12.0,84,0.00,,,0.00,meteohub,2013-07-13 22:12:00,
2013-07-13 18:17:00,79.7,73.4,29.98,West,269,1.0,12.0,81,0.00,,,0.00,meteohub,2013-07-13 22:17:00,
2013-07-13 18:22:00,79.2,72.5,29.98,SW,221,4.0,12.0,80,0.00,,,0.00,meteohub,2013-07-13 22:22:00,
2013-07-13 18:27:00,78.6,72.3,29.97,WSW,252,0.0,10.0,81,0.00,,,0.00,meteohub,2013-07-13 22:27:00,
2013-07-13 18:32:00,78.3,72.0,29.97,WSW,252,2.0,10.0,81,0.00,,,0.00,meteohub,2013-07-13 22:32:00,
2013-07-13 18:37:00,78.1,72.1,29.97,NW,322,0.0,7.0,82,0.00,,,0.00,meteohub,2013-07-13 22:37:00,
2013-07-13 18:42:00,77.7,73.2,29.97,NW,322,3.0,7.0,86,0.04,,,0.04,meteohub,2013-07-13 22:42:00,
2013-07-13 18:47:00,76.8,73.0,29.97,SW,217,6.0,7.0,88,0.18,,,0.18,meteohub,2013-07-13 22:47:00,
2013-07-13 18:52:00,75.6,71.8,29.97,SW,221,2.0,9.0,88,0.31,,,0.31,meteohub,2013-07-13 22:52:00,
2013-07-13 18:57:00,74.7,71.6,29.97,SW,214,0.0,9.0,90,0.32,,,0.32,meteohub,2013-07-13 22:57:00,
2013-07-13 19:02:00,73.9,71.1,29.98,SSW,197,3.0,9.0,91,0.32,,,0.32,meteohub,2013-07-13 23:02:00,
2013-07-13 19:07:00,73.6,71.4,29.98,South,186,3.0,7.0,93,0.37,,,0.37,meteohub,2013-07-13 23:07:00,
2013-07-13 19:12:00,73.0,71.2,29.98,South,191,5.0,9.0,94,0.38,,,0.38,meteohub,2013-07-13 23:12:00,
2013-07-13 19:17:00,72.9,71.1,29.98,SSE,167,8.0,9.0,94,0.38,,,0.38,meteohub,2013-07-13 23:17:00,
2013-07-13 19:22:00,72.5,71.1,29.98,SW,227,7.0,12.0,95,0.38,,,0.38,meteohub,2013-07-13 23:22:00,
2013-07-13 19:27:00,72.5,71.1,29.98,South,190,0.0,12.0,95,0.38,,,0.38,meteohub,2013-07-13 23:27:00,
2013-07-13 19:32:00,72.5,71.2,29.97,SSW,192,4.0,12.0,96,0.38,,,0.38,meteohub,2013-07-13 23:32:00,
2013-07-13 19:37:00,72.3,70.9,29.97,SSW,212,7.0,9.0,95,0.38,,,0.38,meteohub,2013-07-13 23:37:00,
2013-07-13 19:42:00,72.1,70.7,29.97,SSW,209,2.0,9.0,95,0.32,,,0.38,meteohub,2013-07-13 23:42:00,
2013-07-13 19:47:00,72.1,70.7,29.96,SW,231,2.0,9.0,95,0.11,,,0.38,meteohub,2013-07-13 23:47:00,
2013-07-13 19:52:00,72.1,70.7,29.96,SSE,164,0.0,7.0,95,0.06,,,0.38,meteohub,2013-07-13 23:52:00,
2013-07-13 19:57:00,72.1,70.9,29.96,ESE,123,0.0,7.0,96,0.06,,,0.38,meteohub,2013-07-13 23:57:00,
2013-07-13 20:02:00,72.1,70.9,29.96,SSE,164,6.0,6.0,96,0.04,,,0.38,meteohub,2013-07-14 00:02:00,
2013-07-13 20:07:00,72.1,70.9,29.96,SSE,161,0.0,8.0,96,0.00,,,0.38,meteohub,2013-07-14 00:07:00,
2013-07-13 20:12:00,72.1,70.9,29.95,SSE,155,2.0,8.0,96,0.00,,,0.38,meteohub,2013-07-14 00:12:00,
2013-07-13 20:17:00,72.0,70.7,29.95,SSE,157,2.0,7.0,96,0.01,,,0.39,meteohub,2013-07-14 00:17:00,
2013-07-13 20:22:00,72.0,70.7,29.95,SSE,157,0.0,7.0,96,0.01,,,0.39,meteohub,2013-07-14 00:22:00,
2013-07-13 20:27:00,72.0,70.7,29.95,SSE,157,0.0,7.0,96,0.01,,,0.39,meteohub,2013-07-14 00:27:00,
2013-07-13 20:32:00,72.0,70.7,29.95,SSE,157,2.0,6.0,96,0.01,,,0.39,meteohub,2013-07-14 00:32:00,
2013-07-13 20:37:00,72.0,70.7,29.95,SSE,157,0.0,5.0,96,0.01,,,0.39,meteohub,2013-07-14 00:37:00,
2013-07-13 20:42:00,72.0,70.7,29.95,SSE,157,0.0,5.0,96,0.01,,,0.39,meteohub,2013-07-14 00:42:00,
2013-07-13 20:47:00,71.8,70.5,29.95,SSE,157,0.0,5.0,96,0.01,,,0.39,meteohub,2013-07-14 00:47:00,
2013-07-13 20:52:00,71.8,70.5,29.95,SSE,157,0.0,3.0,96,0.01,,,0.39,meteohub,2013-07-14 00:52:00,
2013-07-13 20:57:00,71.8,70.5,29.95,SSE,157,0.0,3.0,96,0.01,,,0.39,meteohub,2013-07-14 00:57:00,
2013-07-13 21:02:00,71.6,70.3,29.95,SSE,157,0.0,6.0,96,0.01,,,0.39,meteohub,2013-07-14 01:02:00,
2013-07-13 21:07:00,71.4,70.2,29.95,SSE,157,0.0,6.0,96,0.01,,,0.39,meteohub,2013-07-14 01:07:00,
2013-07-13 21:12:00,71.4,70.2,29.95,SSE,157,0.0,6.0,96,0.00,,,0.39,meteohub,2013-07-14 01:12:00,
2013-07-13 21:17:00,71.2,70.0,29.95,SSE,157,0.0,5.0,96,0.00,,,0.39,meteohub,2013-07-14 01:17:00,
2013-07-13 21:22:00,71.2,70.0,29.95,SSE,157,0.0,3.0,96,0.00,,,0.39,meteohub,2013-07-14 01:22:00,
2013-07-13 21:27:00,71.2,70.0,29.95,SSE,157,0.0,2.0,96,0.00,,,0.39,meteohub,2013-07-14 01:27:00,
2013-07-13 21:32:00,71.2,70.0,29.96,SSE,157,0.0,2.0,96,0.00,,,0.39,meteohub,2013-07-14 01:32:00,
2013-07-13 21:37:00,71.1,69.8,29.96,SSE,157,0.0,0.0,96,0.00,,,0.39,meteohub,2013-07-14 01:37:00,
2013-07-13 21:42:00,71.1,69.8,29.96,SSE,157,0.0,0.0,96,0.00,,,0.39,meteohub,2013-07-14 01:42:00,
2013-07-13 21:47:00,71.1,70.2,29.96,SSE,157,1.0,0.0,97,0.00,,,0.39,meteohub,2013-07-14 01:47:00,
2013-07-13 21:52:00,71.1,69.8,29.97,SSE,157,0.0,2.0,96,0.00,,,0.39,meteohub,2013-07-14 01:52:00,
2013-07-13 21:57:00,71.1,69.8,29.97,SSE,157,2.0,2.0,96,0.00,,,0.39,meteohub,2013-07-14 01:57:00,
2013-07-13 22:02:00,71.1,70.2,29.98,SSE,157,0.0,2.0,97,0.00,,,0.39,meteohub,2013-07-14 02:02:00,
2013-07-13 22:07:00,71.1,70.2,29.98,SSE,157,0.0,2.0,97,0.00,,,0.39,meteohub,2013-07-14 02:07:00,
2013-07-13 22:12:00,70.9,70.0,29.99,SSE,157,0.0,2.0,97,0.00,,,0.39,meteohub,2013-07-14 02:12:00,
2013-07-13 22:17:00,70.9,69.6,29.99,SSE,157,0.0,0.0,96,0.00,,,0.39,meteohub,2013-07-14 02:17:00,
2013-07-13 22:22:00,70.9,69.6,29.99,SSE,157,0.0,0.0,96,0.00,,,0.39,meteohub,2013-07-14 02:22:00,
2013-07-13 22:27:00,70.9,70.0,29.99,SSE,157,0.0,1.0,97,0.00,,,0.39,meteohub,2013-07-14 02:27:00,
2013-07-13 22:32:00,71.1,70.2,29.99,SSE,157,0.0,3.0,97,0.00,,,0.39,meteohub,2013-07-14 02:32:00,
2013-07-13 22:37:00,71.1,70.2,30.00,SSE,157,0.0,3.0,97,0.00,,,0.39,meteohub,2013-07-14 02:37:00,
2013-07-13 22:42:00,70.9,69.6,30.00,SSE,157,0.0,3.0,96,0.00,,,0.39,meteohub,2013-07-14 02:42:00,
2013-07-13 22:47:00,70.9,69.6,30.00,SSE,157,0.0,0.0,96,0.00,,,0.39,meteohub,2013-07-14 02:47:00,
2013-07-13 22:52:00,70.9,69.6,30.00,SSE,157,0.0,0.0,96,0.00,,,0.39,meteohub,2013-07-14 02:52:00,
2013-07-13 22:57:00,70.9,70.0,30.01,SSE,157,0.0,0.0,97,0.00,,,0.39,meteohub,2013-07-14 02:57:00,
2013-07-13 23:02:00,70.9,69.6,30.01,SSE,157,0.0,0.0,96,0.00,,,0.39,meteohub,2013-07-14 03:02:00,
2013-07-13 23:07:00,70.9,70.0,30.01,SSE,157,0.0,0.0,97,0.00,,,0.39,meteohub,2013-07-14 03:07:00,
2013-07-13 23:12:00,70.9,70.0,30.01,SSE,157,0.0,0.0,97,0.00,,,0.39,meteohub,2013-07-14 03:12:00,
2013-07-13 23:17:00,70.9,70.0,30.01,SSE,157,0.0,0.0,97,0.00,,,0.39,meteohub,2013-07-14 03:17:00,
2013-07-13 23:22:00,70.9,70.0,30.01,SSE,157,0.0,0.0,97,0.00,,,0.39,meteohub,2013-07-14 03:22:00,
2013-07-13 23:27:00,70.9,70.0,30.01,SSE,157,0.0,0.0,97,0.00,,,0.39,meteohub,2013-07-14 03:27:00,
2013-07-13 23:32:00,70.9,70.0,30.01,SSE,157,0.0,0.0,97,0.00,,,0.39,meteohub,2013-07-14 03:32:00,
2013-07-13 23:37:00,70.7,69.8,30.01,SSE,157,0.0,0.0,97,0.00,,,0.39,meteohub,2013-07-14 03:37:00,
2013-07-13 23:42:00,70.5,69.6,30.01,SSE,157,0.0,0.0,97,0.00,,,0.39,meteohub,2013-07-14 03:42:00,
2013-07-13 23:47:00,70.5,69.6,30.01,SSE,157,0.0,0.0,97,0.00,,,0.39,meteohub,2013-07-14 03:47:00,
2013-07-13 23:52:00,70.5,69.6,30.02,SSE,157,0.0,0.0,97,0.00,,,0.39,meteohub,2013-07-14 03:52:00,
2013-07-13 23:57:00,70.5,69.6,30.02,SSE,157,0.0,0.0,97,0.00,,,0.39,meteohub,2013-07-14 03:57:00,